WXM80 ListenWXM80 Stop

You find our weather info also at:

UK Metoffice

WeatherCloud

Weather Underground

Northeastern Weather Network

AWEKAS

Citizen Weather Observer Program (CWOP)

HAMweather, WeatherForYou, PWS Weather


Weather Underground History page Text

Daily Summary for September 8, 2017 Units:  Metric    English   Both
« Previous Day
Next Day »
Daily Weekly Monthly Yearly Custom
  High: Low: Average:
Temperature: 25.4 °C 13.5 °C 18.8 °C
Dew Point: 15.3 °C 11 °C 12.4 °C
Humidity: 89 % 46 % 68 %
Wind Speed: 10.8 km/h 0 km/h 3.5 km/h
Wind Gust: 19.3 km/h - -
Wind:- - WSW
Pressure: 1019.9 hPa 1014.1 hPa -
Precipitation: 0 mm    
Historical Graphs
 
 
Tabular Data for September 8, 2017
Time Temperature Dew Point Pressure Wind Wind Speed Wind Gust Humidity Rainfall Rate (Hourly)
00:00 16.5 °C 11.8 °C 1014.1 hPa Calm   3.7 km/h 74 % 0 mm
00:05 16.4 °C 11.8 °C 1014.1 hPa Calm   1.9 km/h 74 % 0 mm
00:10 16.4 °C 11.7 °C 1014.4 hPa SSW 1.1 km/h 5.6 km/h 74 % 0 mm
00:15 16.3 °C 11.5 °C 1014.4 hPa SSW 3.4 km/h 5.6 km/h 73 % 0 mm
00:18 16.3 °C 11.5 °C 1014.4 hPa West 0.5 km/h 7.4 km/h 73 % 0 mm
00:23 16.3 °C 11.5 °C 1014.4 hPa WSW 1.4 km/h 5.6 km/h 73 % 0 mm
00:28 16.3 °C 11.4 °C 1014.4 hPa WSW 0.2 km/h 3.7 km/h 73 % 0 mm
00:33 16.3 °C 11.6 °C 1014.4 hPa SW 3.7 km/h 8 km/h 74 % 0 mm
00:38 16.3 °C 11.6 °C 1014.4 hPa SW 4.2 km/h 5.6 km/h 74 % 0 mm
00:43 16.3 °C 11.7 °C 1014.8 hPa SW 4.3 km/h 9.3 km/h 74 % 0 mm
00:48 16.4 °C 11.7 °C 1014.8 hPa WSW 4.7 km/h 8 km/h 74 % 0 mm
00:53 16.5 °C 11.7 °C 1014.8 hPa WSW 5.6 km/h 8 km/h 73 % 0 mm
00:58 16.6 °C 11.7 °C 1014.8 hPa WSW 3.4 km/h 9.7 km/h 73 % 0 mm
01:03 16.7 °C 11.8 °C 1014.8 hPa WSW 1.8 km/h 8 km/h 73 % 0 mm
01:08 16.7 °C 11.7 °C 1014.8 hPa SW 0.5 km/h 7.4 km/h 72 % 0 mm
01:13 16.8 °C 11.7 °C 1014.8 hPa WSW 1.4 km/h 5.6 km/h 72 % 0 mm
01:18 16.8 °C 11.7 °C 1014.8 hPa WSW 1.6 km/h 3.7 km/h 72 % 0 mm
01:23 16.8 °C 11.7 °C 1014.8 hPa WSW 2.6 km/h 5.6 km/h 72 % 0 mm
01:28 16.7 °C 11.7 °C 1014.8 hPa SW 0.3 km/h 5.6 km/h 72 % 0 mm
01:33 16.7 °C 11.8 °C 1014.8 hPa WSW 1.6 km/h 6.4 km/h 73 % 0 mm
01:38 16.7 °C 11.8 °C 1014.8 hPa WNW 0.8 km/h 3.2 km/h 73 % 0 mm
01:43 16.6 °C 11.7 °C 1014.8 hPa SW 2.7 km/h 5.6 km/h 73 % 0 mm
01:48 16.6 °C 11.9 °C 1014.8 hPa WSW 0.6 km/h 7.4 km/h 74 % 0 mm
01:53 16.5 °C 11.8 °C 1014.8 hPa Calm   1.9 km/h 74 % 0 mm
01:58 16.4 °C 11.8 °C 1014.8 hPa WSW 0.3 km/h 3.7 km/h 74 % 0 mm
02:03 16.4 °C 11.7 °C 1014.8 hPa West 3.2 km/h 3.7 km/h 74 % 0 mm
02:08 16.3 °C 11.6 °C 1014.8 hPa WSW 1.6 km/h 1.9 km/h 74 % 0 mm
02:13 16.3 °C 11.8 °C 1014.8 hPa Calm   1.9 km/h 75 % 0 mm
02:18 16.3 °C 11.8 °C 1014.8 hPa WSW 0.5 km/h 4.8 km/h 75 % 0 mm
02:23 16.2 °C 11.8 °C 1015.1 hPa Calm     75 % 0 mm
02:28 16.2 °C 11.7 °C 1015.1 hPa WSW 2.1 km/h 3.7 km/h 75 % 0 mm
02:34 16.1 °C 11.6 °C 1015.1 hPa WSW 2.1 km/h 3.7 km/h 75 % 0 mm
02:38 16 °C 11.6 °C 1015.1 hPa Calm     75 % 0 mm
02:44 15.9 °C 11.5 °C 1015.1 hPa SW 0.3 km/h 3.7 km/h 75 % 0 mm
02:49 15.8 °C 11.3 °C 1015.1 hPa WSW 0.3 km/h 5.6 km/h 75 % 0 mm
02:54 15.7 °C 11.3 °C 1015.1 hPa WSW 0.8 km/h 3.7 km/h 75 % 0 mm
02:59 15.6 °C 11.2 °C 1015.5 hPa SW 0.2 km/h 1.9 km/h 75 % 0 mm
03:04 15.5 °C 11.1 °C 1015.1 hPa Calm   3.7 km/h 75 % 0 mm
03:09 15.4 °C 11.2 °C 1015.1 hPa SW 0.6 km/h 3.7 km/h 76 % 0 mm
03:10 15.4 °C 11.2 °C 1015.1 hPa SW 1.8 km/h 4.8 km/h 76 % 0 mm
03:15 15.3 °C 11.1 °C 1015.1 hPa Calm   1.9 km/h 76 % 0 mm
03:20 15.3 °C 11.1 °C 1015.5 hPa SW 0.8 km/h 3.7 km/h 76 % 0 mm
03:25 15.2 °C 11.2 °C 1015.1 hPa SW 0.5 km/h 3.2 km/h 77 % 0 mm
03:30 15.1 °C 11.1 °C 1015.5 hPa SW 0.8 km/h 3.7 km/h 77 % 0 mm
03:35 15.1 °C 11.1 °C 1015.5 hPa SW 0.3 km/h 1.9 km/h 77 % 0 mm
03:40 15 °C 11 °C 1015.5 hPa WSW 0.6 km/h 5.6 km/h 77 % 0 mm
03:45 14.9 °C 11.2 °C 1015.5 hPa WSW 0.3 km/h 1.9 km/h 78 % 0 mm
03:50 14.8 °C 11.1 °C 1015.5 hPa SW 2.3 km/h 6.4 km/h 78 % 0 mm
03:55 14.8 °C 11.2 °C 1015.5 hPa WSW 2.6 km/h 5.6 km/h 79 % 0 mm
04:00 14.8 °C 11.2 °C 1015.5 hPa SW 0.8 km/h 3.7 km/h 79 % 0 mm
04:05 14.7 °C 11.1 °C 1015.5 hPa West 1.4 km/h 5.6 km/h 79 % 0 mm
04:10 14.7 °C 11.1 °C 1015.5 hPa WSW 2.7 km/h 5.6 km/h 79 % 0 mm
04:15 14.7 °C 11.1 °C 1015.5 hPa WSW 0.3 km/h 3.7 km/h 79 % 0 mm
04:20 14.6 °C 11.2 °C 1015.5 hPa SW 0.6 km/h 3.7 km/h 80 % 0 mm
04:25 14.6 °C 11.4 °C 1015.5 hPa SW 0.2 km/h 1.9 km/h 81 % 0 mm
04:30 14.6 °C 11.3 °C 1015.5 hPa SW 1.1 km/h 3.7 km/h 81 % 0 mm
04:35 14.6 °C 11.5 °C 1015.5 hPa WSW 2.6 km/h 6.4 km/h 82 % 0 mm
04:40 14.5 °C 11.4 °C 1015.5 hPa WSW 1.3 km/h 5.6 km/h 82 % 0 mm
04:45 14.4 °C 11.2 °C 1015.5 hPa WSW 0.8 km/h 1.9 km/h 81 % 0 mm
04:50 14.4 °C 11.3 °C 1015.5 hPa WSW 1.8 km/h 4.8 km/h 82 % 0 mm
04:55 14.3 °C 11.3 °C 1015.5 hPa WSW 1.1 km/h 5.6 km/h 82 % 0 mm
04:56 14.3 °C 11.2 °C 1015.5 hPa SW 2.7 km/h 7.4 km/h 82 % 0 mm
05:01 14.3 °C 11.2 °C 1015.5 hPa SSW 0.5 km/h 1.9 km/h 82 % 0 mm
05:06 14.2 °C 11.2 °C 1015.8 hPa SW 0.8 km/h 3.7 km/h 82 % 0 mm
05:07 14.2 °C 11.2 °C 1015.8 hPa Calm   1.9 km/h 82 % 0 mm
05:12 14.2 °C 11.1 °C 1015.8 hPa WSW 0.3 km/h 5.6 km/h 82 % 0 mm
05:17 14.2 °C 11.3 °C 1015.8 hPa WSW 0.3 km/h 3.7 km/h 83 % 0 mm
05:22 14.1 °C 11.3 °C 1015.8 hPa SW 2.9 km/h 6.4 km/h 83 % 0 mm
05:27 14.1 °C 11.3 °C 1015.8 hPa SW 2.1 km/h 7.4 km/h 83 % 0 mm
05:32 14.1 °C 11.2 °C 1015.8 hPa SW 2.1 km/h 3.7 km/h 83 % 0 mm
05:37 14.1 °C 11.2 °C 1015.8 hPa SW 0.6 km/h 1.9 km/h 83 % 0 mm
05:42 14 °C 11.2 °C 1015.8 hPa SW 0.3 km/h 5.6 km/h 83 % 0 mm
05:47 14 °C 11.3 °C 1016.1 hPa SW 0.2 km/h 3.7 km/h 84 % 0 mm
05:52 14 °C 11.3 °C 1016.1 hPa SW 1.6 km/h 4.8 km/h 84 % 0 mm
05:57 13.9 °C 11.3 °C 1016.1 hPa WSW 2.4 km/h 5.6 km/h 84 % 0 mm
06:02 13.9 °C 11.3 °C 1016.1 hPa Calm   1.9 km/h 84 % 0 mm
06:07 13.9 °C 11.3 °C 1016.1 hPa SW 1.1 km/h 3.7 km/h 84 % 0 mm
06:12 13.9 °C 11.2 °C 1015.8 hPa SW 0.8 km/h 1.9 km/h 84 % 0 mm
06:17 13.9 °C 11.4 °C 1016.1 hPa SW 2.3 km/h 3.7 km/h 85 % 0 mm
06:22 13.8 °C 11.3 °C 1015.8 hPa SSW 0.2 km/h 3.2 km/h 85 % 0 mm
06:27 13.8 °C 11.3 °C 1015.8 hPa SSW 0.3 km/h 1.9 km/h 85 % 0 mm
06:32 13.8 °C 11.3 °C 1015.8 hPa SSW 0.5 km/h 1.9 km/h 85 % 0 mm
06:37 13.7 °C 11.2 °C 1016.1 hPa SSW 1.6 km/h 3.7 km/h 85 % 0 mm
06:42 13.7 °C 11.2 °C 1016.1 hPa SSW 0.8 km/h 4.8 km/h 85 % 0 mm
06:47 13.7 °C 11.4 °C 1016.5 hPa SSW 0.8 km/h 1.9 km/h 86 % 0 mm
06:52 13.6 °C 11.3 °C 1016.5 hPa SSW 0.3 km/h 1.9 km/h 86 % 0 mm
06:57 13.6 °C 11.3 °C 1016.5 hPa SSE 2.7 km/h 7.4 km/h 86 % 0 mm
07:03 13.6 °C 11.4 °C 1016.5 hPa SSW 2.6 km/h 5.6 km/h 87 % 0 mm
07:08 13.5 °C 11.4 °C 1016.5 hPa SSW 2.9 km/h 3.7 km/h 87 % 0 mm
07:13 13.5 °C 11.4 °C 1016.5 hPa SW 1.8 km/h 5.6 km/h 87 % 0 mm
07:18 13.5 °C 11.6 °C 1016.5 hPa SW 3.7 km/h 5.6 km/h 88 % 0 mm
07:23 13.5 °C 11.6 °C 1016.5 hPa WSW 3.1 km/h 5.6 km/h 88 % 0 mm
07:28 13.6 °C 11.6 °C 1016.5 hPa Calm   1.9 km/h 88 % 0 mm
07:33 13.6 °C 11.8 °C 1016.8 hPa SW 1.9 km/h 3.7 km/h 89 % 0 mm
07:38 13.7 °C 11.9 °C 1016.8 hPa SW 3.7 km/h 5.6 km/h 89 % 0 mm
07:43 13.8 °C 12 °C 1016.8 hPa SW 4.8 km/h 7.4 km/h 89 % 0 mm
07:48 13.9 °C 12.1 °C 1016.8 hPa WSW 1.1 km/h 7.4 km/h 89 % 0 mm
07:53 14 °C 12.1 °C 1016.8 hPa SW 0.8 km/h 3.7 km/h 88 % 0 mm
07:59 14.2 °C 12.4 °C 1016.8 hPa WSW 4.5 km/h 9.7 km/h 89 % 0 mm
08:04 14.3 °C 12.4 °C 1016.8 hPa WSW 3.9 km/h 7.4 km/h 88 % 0 mm
08:09 14.6 °C 12.6 °C 1016.8 hPa WNW 3.7 km/h 8 km/h 88 % 0 mm
08:14 14.8 °C 12.6 °C 1016.8 hPa WSW 3.7 km/h 5.6 km/h 87 % 0 mm
08:19 15 °C 12.7 °C 1016.8 hPa WSW 5 km/h 7.4 km/h 86 % 0 mm
08:24 15.2 °C 12.7 °C 1016.8 hPa SSW 7.4 km/h 13 km/h 85 % 0 mm
08:29 15.4 °C 12.7 °C 1016.8 hPa SSW 4.3 km/h 8 km/h 84 % 0 mm
08:34 15.6 °C 12.7 °C 1016.8 hPa SW 2.7 km/h 5.6 km/h 83 % 0 mm
08:39 15.8 °C 12.7 °C 1016.8 hPa SSW 5.1 km/h 7.4 km/h 82 % 0 mm
08:44 15.9 °C 12.7 °C 1016.8 hPa WSW 3.7 km/h 7.4 km/h 81 % 0 mm
08:49 16.2 °C 12.9 °C 1016.8 hPa SSW 4.7 km/h 9.3 km/h 81 % 0 mm
08:54 16.3 °C 13.1 °C 1016.8 hPa WSW 7.2 km/h 11.1 km/h 81 % 0 mm
09:00 16.6 °C 13.1 °C 1016.8 hPa WSW 6.4 km/h 12.9 km/h 80 % 0 mm
09:05 16.8 °C 12.9 °C 1016.8 hPa West 5.1 km/h 14.5 km/h 78 % 0 mm
09:10 16.9 °C 13.1 °C 1017.2 hPa West 3.4 km/h 9.3 km/h 78 % 0 mm
09:15 17.1 °C 12.8 °C 1017.2 hPa WSW 9.3 km/h 18.5 km/h 76 % 0 mm
09:20 17.2 °C 12.9 °C 1017.2 hPa SSW 5.8 km/h 9.7 km/h 76 % 0 mm
09:25 17.3 °C 12.7 °C 1017.2 hPa WSW 7.7 km/h 9.3 km/h 74 % 0 mm
09:31 17.4 °C 12.9 °C 1017.2 hPa West 8 km/h 16.1 km/h 75 % 0 mm
09:36 17.6 °C 12.9 °C 1017.5 hPa West 3.2 km/h 14.5 km/h 74 % 0 mm
09:41 17.7 °C 13 °C 1017.5 hPa West 1.6 km/h 11.3 km/h 74 % 0 mm
09:46 17.9 °C 13.3 °C 1017.5 hPa West 1.6 km/h 14.5 km/h 74 % 0 mm
09:51 18.2 °C 13.3 °C 1017.5 hPa West 4.8 km/h 14.5 km/h 73 % 0 mm
09:56 18.5 °C 13.2 °C 1017.5 hPa WSW 8 km/h 12.9 km/h 71 % 0 mm
10:01 18.8 °C 13.2 °C 1017.5 hPa SW 1.8 km/h 18.5 km/h 70 % 0 mm
10:06 18.9 °C 12.9 °C 1017.5 hPa WSW 5 km/h 13 km/h 68 % 0 mm
10:11 19 °C 13.2 °C 1017.2 hPa SW 4.7 km/h 7.4 km/h 69 % 0 mm
10:16 19.1 °C 13 °C 1017.2 hPa WNW 9 km/h 16.7 km/h 68 % 0 mm
10:21 19.1 °C 12.8 °C 1017.2 hPa WSW 4.8 km/h 9.3 km/h 67 % 0 mm
10:26 19.1 °C 12.8 °C 1017.2 hPa NW 8 km/h 11.1 km/h 67 % 0 mm
10:31 19.1 °C 12.8 °C 1017.2 hPa SSW 4.7 km/h 9.3 km/h 67 % 0 mm
10:36 19.1 °C 13.3 °C 1017.2 hPa WSW 8.5 km/h 14.8 km/h 69 % 0 mm
10:41 19.2 °C 12.9 °C 1017.2 hPa WSW 4.8 km/h 13 km/h 67 % 0 mm
10:46 19.2 °C 13.2 °C 1017.2 hPa West 2.6 km/h 4.8 km/h 68 % 0 mm
10:51 19.3 °C 13.1 °C 1017.2 hPa West 7.2 km/h 13 km/h 67 % 0 mm
10:56 19.5 °C 13 °C 1017.2 hPa SSW 5.5 km/h 9.7 km/h 66 % 0 mm
10:59 19.6 °C 13.3 °C 1017.2 hPa WSW 4.2 km/h 5.6 km/h 67 % 0 mm
11:04 19.8 °C 13.5 °C 1017.2 hPa WSW 5.5 km/h 9.7 km/h 67 % 0 mm
11:09 20.2 °C 13.7 °C 1017.2 hPa SSW 8 km/h 11.1 km/h 66 % 0 mm
11:14 20.7 °C 13.7 °C 1017.2 hPa West 8.2 km/h 14.8 km/h 64 % 0 mm
11:19 21.2 °C 13.6 °C 1017.2 hPa WSW 6 km/h 14.8 km/h 62 % 0 mm
11:24 21.6 °C 13.7 °C 1017.2 hPa WSW 6.6 km/h 9.7 km/h 61 % 0 mm
11:29 22.1 °C 14.7 °C 1017.2 hPa WNW 7.1 km/h 12.9 km/h 63 % 0 mm
11:34 22.6 °C 15.2 °C 1016.8 hPa WSW 2.6 km/h 9.3 km/h 63 % 0 mm
11:39 23 °C 15.3 °C 1016.8 hPa NW 3.4 km/h 14.5 km/h 62 % 0 mm
11:44 23.3 °C 14.9 °C 1017.2 hPa WNW 1.1 km/h 6.4 km/h 59 % 0 mm
11:49 23.6 °C 13.7 °C 1017.2 hPa WSW 8.2 km/h 13 km/h 54 % 0 mm
11:54 23.7 °C 13.6 °C 1016.8 hPa SW 7.4 km/h 9.3 km/h 53 % 0 mm
11:59 23.9 °C 13.8 °C 1017.2 hPa WSW 2.9 km/h 7.4 km/h 53 % 0 mm
12:04 24.1 °C 13.6 °C 1016.8 hPa WSW 4.2 km/h 14.8 km/h 52 % 0 mm
12:09 24.2 °C 14.9 °C 1016.8 hPa SW 3.9 km/h 7.4 km/h 56 % 0 mm
12:14 24.4 °C 15.1 °C 1017.2 hPa West 5.5 km/h 11.3 km/h 56 % 0 mm
12:20 24.4 °C 14.2 °C 1017.2 hPa WSW 4 km/h 9.3 km/h 53 % 0 mm
12:25 24.6 °C 14.7 °C 1016.8 hPa West 4 km/h 13 km/h 54 % 0 mm
12:30 24.7 °C 13.8 °C 1017.2 hPa West 1.8 km/h 5.6 km/h 51 % 0 mm
12:35 24.8 °C 13.9 °C 1017.2 hPa SW 4.3 km/h 9.7 km/h 51 % 0 mm
12:40 24.8 °C 14 °C 1017.2 hPa West 3.9 km/h 8 km/h 51 % 0 mm
12:45 24.8 °C 13.1 °C 1017.2 hPa SW 8.9 km/h 16.7 km/h 48 % 0 mm
12:50 24.8 °C 13.7 °C 1016.8 hPa SW 3.7 km/h 9.3 km/h 50 % 0 mm
12:55 24.8 °C 13.4 °C 1017.2 hPa NW 2.9 km/h 16.7 km/h 49 % 0 mm
13:00 24.9 °C 13.4 °C 1017.2 hPa SSW 4.2 km/h 9.3 km/h 49 % 0 mm
13:05 24.8 °C 13.4 °C 1017.2 hPa WNW 1.9 km/h 13 km/h 49 % 0 mm
13:10 24.8 °C 14 °C 1017.2 hPa WSW 8.7 km/h 12.9 km/h 51 % 0 mm
13:15 24.8 °C 13.3 °C 1016.8 hPa WSW 1 km/h 5.6 km/h 49 % 0 mm
13:20 24.8 °C 13.7 °C 1016.8 hPa SW 6 km/h 9.3 km/h 50 % 0 mm
13:25 24.8 °C 13 °C 1016.8 hPa SSW 5.1 km/h 9.7 km/h 48 % 0 mm
13:30 24.7 °C 13.2 °C 1016.8 hPa WSW 6.6 km/h 11.1 km/h 49 % 0 mm
13:36 24.7 °C 13.6 °C 1016.8 hPa SW 5.6 km/h 13 km/h 50 % 0 mm
13:40 24.9 °C 14.9 °C 1016.8 hPa West 3.2 km/h 8 km/h 54 % 0 mm
13:46 25 °C 13.8 °C 1016.8 hPa West 1.6 km/h 19.3 km/h 50 % 0 mm
13:51 25.1 °C 13.9 °C 1016.8 hPa West 8 km/h 19.3 km/h 50 % 0 mm
13:56 25.1 °C 14.3 °C 1017.2 hPa WNW 3.2 km/h 14.5 km/h 51 % 0 mm
14:01 25.1 °C 13.3 °C 1016.8 hPa WSW 4.2 km/h 9.3 km/h 48 % 0 mm
14:06 25.2 °C 13.4 °C 1016.8 hPa WNW 7.4 km/h 14.8 km/h 48 % 0 mm
14:11 25.2 °C 14.1 °C 1016.8 hPa NW 7.1 km/h 13 km/h 50 % 0 mm
14:16 25.3 °C 14.7 °C 1016.8 hPa WNW 1.9 km/h 6.4 km/h 52 % 0 mm
14:21 25.4 °C 14.5 °C 1016.8 hPa WSW 6.1 km/h 9.3 km/h 51 % 0 mm
14:26 25.4 °C 14.3 °C 1016.8 hPa WSW 4.3 km/h 13 km/h 50 % 0 mm
14:28 25.4 °C 13.3 °C 1016.8 hPa WSW 10 km/h 18.5 km/h 47 % 0 mm
14:33 25.3 °C 12.9 °C 1017.2 hPa SW 5.1 km/h 14.8 km/h 46 % 0 mm
14:38 25.2 °C 13.7 °C 1016.8 hPa NW 3.9 km/h 11.1 km/h 49 % 0 mm
14:43 24.9 °C 14.4 °C 1016.8 hPa WNW 3.7 km/h 5.6 km/h 52 % 0 mm
14:48 24.7 °C 13.6 °C 1016.8 hPa WNW 4 km/h 8 km/h 50 % 0 mm
14:53 24.4 °C 12.7 °C 1016.8 hPa WNW 4 km/h 9.7 km/h 48 % 0 mm
14:58 24.2 °C 13.1 °C 1016.8 hPa West 7.9 km/h 11.1 km/h 50 % 0 mm
15:03 23.9 °C 12.9 °C 1016.8 hPa NW 4.5 km/h 11.1 km/h 50 % 0 mm
15:08 23.8 °C 13.3 °C 1016.8 hPa NW 7.1 km/h 11.3 km/h 52 % 0 mm
15:13 23.8 °C 14.7 °C 1016.8 hPa WSW 2.3 km/h 9.3 km/h 57 % 0 mm
15:18 23.7 °C 13.8 °C 1016.8 hPa West 3.7 km/h 9.3 km/h 54 % 0 mm
15:23 23.7 °C 13.6 °C 1016.8 hPa WSW 5.5 km/h 9.7 km/h 53 % 0 mm
15:28 23.7 °C 13.5 °C 1016.8 hPa NW 3.7 km/h 6.4 km/h 53 % 0 mm
15:33 23.6 °C 13.2 °C 1016.8 hPa West 6.8 km/h 18.5 km/h 52 % 0 mm
15:35 23.6 °C 13.4 °C 1016.8 hPa WSW 5.3 km/h 18.5 km/h 53 % 0 mm
15:40 23.7 °C 13.8 °C 1016.8 hPa NE 6.4 km/h 13 km/h 54 % 0 mm
15:45 23.8 °C 13.3 °C 1017.2 hPa NW 5.3 km/h 11.1 km/h 52 % 0 mm
15:50 23.8 °C 14.2 °C 1016.8 hPa SW 8.4 km/h 14.8 km/h 55 % 0 mm
15:55 23.9 °C 13.8 °C 1017.2 hPa WSW 8.5 km/h 12.9 km/h 53 % 0 mm
16:00 24.1 °C 13.6 °C 1017.2 hPa West 1.8 km/h 7.4 km/h 52 % 0 mm
16:05 24.1 °C 13.3 °C 1017.2 hPa NW 2.4 km/h 5.6 km/h 51 % 0 mm
16:10 24.2 °C 13.4 °C 1017.2 hPa WNW 5.3 km/h 14.8 km/h 51 % 0 mm
16:15 24.2 °C 13.1 °C 1017.2 hPa NW 4.5 km/h 9.3 km/h 50 % 0 mm
16:20 24.2 °C 13.7 °C 1016.8 hPa SW 4.3 km/h 9.7 km/h 52 % 0 mm
16:25 24.2 °C 13.1 °C 1017.2 hPa WSW 7.4 km/h 13 km/h 50 % 0 mm
16:30 24.3 °C 13.2 °C 1016.8 hPa WSW 5.8 km/h 7.4 km/h 50 % 0 mm
16:35 24.3 °C 13.8 °C 1016.8 hPa SW 2.7 km/h 5.6 km/h 52 % 0 mm
16:40 24.3 °C 13.5 °C 1017.2 hPa South 4.2 km/h 6.4 km/h 51 % 0 mm
16:45 24.3 °C 13.2 °C 1017.2 hPa SW 4.8 km/h 12.9 km/h 50 % 0 mm
16:50 24.2 °C 12.8 °C 1017.2 hPa WSW 4.8 km/h 12.9 km/h 49 % 0 mm
16:55 24.1 °C 12.4 °C 1017.2 hPa West 4.8 km/h 9.7 km/h 48 % 0 mm
17:01 24 °C 12 °C 1016.8 hPa WSW 8.2 km/h 9.3 km/h 47 % 0 mm
17:06 23.8 °C 13.4 °C 1016.8 hPa NW 1.8 km/h 3.7 km/h 52 % 0 mm
17:11 23.7 °C 13 °C 1016.8 hPa SW 3.2 km/h 12.9 km/h 51 % 0 mm
17:16 23.6 °C 11.9 °C 1016.8 hPa West 6.1 km/h 9.7 km/h 48 % 0 mm
17:21 23.4 °C 12.1 °C 1016.8 hPa West 7.4 km/h 16.7 km/h 49 % 0 mm
17:26 23.3 °C 11.7 °C 1016.8 hPa WNW 8 km/h 14.8 km/h 48 % 0 mm
17:31 23.1 °C 11.4 °C 1017.2 hPa West 4.8 km/h 9.3 km/h 48 % 0 mm
17:36 22.8 °C 11.2 °C 1017.2 hPa SW 6.8 km/h 11.1 km/h 48 % 0 mm
17:41 22.6 °C 11.3 °C 1017.2 hPa WNW 7.2 km/h 11.1 km/h 49 % 0 mm
17:46 22.4 °C 11.8 °C 1017.2 hPa WSW 3.7 km/h 13 km/h 51 % 0 mm
17:51 22.2 °C 11.6 °C 1017.5 hPa SSW 4.8 km/h 9.3 km/h 51 % 0 mm
17:56 22 °C 11.7 °C 1017.2 hPa West 2.9 km/h 11.1 km/h 52 % 0 mm
18:01 21.8 °C 12.1 °C 1017.2 hPa WNW 2.7 km/h 9.3 km/h 54 % 0 mm
18:06 21.7 °C 11.9 °C 1017.5 hPa WSW 7.4 km/h 16.1 km/h 54 % 0 mm
18:09 21.6 °C 11.8 °C 1017.5 hPa WNW 6 km/h 9.7 km/h 54 % 0 mm
18:14 21.3 °C 11.3 °C 1017.5 hPa WNW 2.1 km/h 6.4 km/h 53 % 0 mm
18:19 21.2 °C 11.8 °C 1017.5 hPa SSW 2.1 km/h 5.6 km/h 55 % 0 mm
18:24 21.1 °C 11.7 °C 1017.5 hPa WSW 3.1 km/h 9.7 km/h 55 % 0 mm
18:29 20.9 °C 11.6 °C 1017.5 hPa West 5 km/h 9.3 km/h 55 % 0 mm
18:34 20.8 °C 11.4 °C 1017.5 hPa Calm   3.7 km/h 55 % 0 mm
18:39 20.7 °C 11.6 °C 1017.5 hPa WNW 3.2 km/h 9.3 km/h 56 % 0 mm
18:44 20.6 °C 11.7 °C 1017.5 hPa SW 1 km/h 11.1 km/h 57 % 0 mm
18:49 20.4 °C 11.6 °C 1017.5 hPa NW 6.9 km/h 9.3 km/h 57 % 0 mm
18:53 20.3 °C 11.6 °C 1017.5 hPa WSW 5.1 km/h 5.6 km/h 57 % 0 mm
18:58 20.2 °C 11.4 °C 1017.5 hPa West 3.7 km/h 9.3 km/h 57 % 0 mm
19:03 20.1 °C 11.3 °C 1017.5 hPa West 3.2 km/h 16.7 km/h 57 % 0 mm
19:08 20 °C 11.2 °C 1017.5 hPa WSW 2.1 km/h 7.4 km/h 57 % 0 mm
19:13 19.9 °C 11.7 °C 1017.8 hPa WSW 3.1 km/h 17.7 km/h 59 % 0 mm
19:18 19.8 °C 11.6 °C 1017.8 hPa West 1.1 km/h 5.6 km/h 59 % 0 mm
19:23 19.7 °C 11.7 °C 1017.8 hPa SW 2.9 km/h 6.4 km/h 60 % 0 mm
19:28 19.6 °C 11.6 °C 1017.8 hPa WNW 5.1 km/h 9.3 km/h 60 % 0 mm
19:34 19.5 °C 11.5 °C 1017.8 hPa WNW 1 km/h 5.6 km/h 60 % 0 mm
19:39 19.4 °C 11.7 °C 1017.8 hPa West 4.7 km/h 4.7 km/h 61 % 0 mm
19:44 19.4 °C 11.7 °C 1017.8 hPa NW 1.4 km/h 9.3 km/h 61 % 0 mm
19:49 19.3 °C 11.9 °C 1018.2 hPa NW 2.1 km/h 9.3 km/h 62 % 0 mm
19:51 19.3 °C 12.1 °C 1017.8 hPa WNW 4.5 km/h 9.3 km/h 63 % 0 mm
19:56 19.3 °C 11.8 °C 1018.2 hPa WNW 3.7 km/h 7.4 km/h 62 % 0 mm
20:01 19.2 °C 12 °C 1018.2 hPa WNW 7.9 km/h 9.7 km/h 63 % 0 mm
20:06 19.2 °C 11.7 °C 1018.2 hPa West 6.1 km/h 12.9 km/h 62 % 0 mm
20:08 19.2 °C 11.9 °C 1018.2 hPa WNW 1.9 km/h 13 km/h 63 % 0 mm
20:13 19.1 °C 11.9 °C 1018.5 hPa West 5.1 km/h 9.3 km/h 63 % 0 mm
20:18 19.1 °C 11.9 °C 1018.5 hPa NNW 6.8 km/h 13 km/h 63 % 0 mm
20:23 19.1 °C 12.1 °C 1018.5 hPa SW 3.4 km/h 8 km/h 64 % 0 mm
20:28 19.1 °C 12.1 °C 1018.5 hPa West 2.7 km/h 7.4 km/h 64 % 0 mm
20:33 19 °C 12.1 °C 1018.8 hPa WNW 1.3 km/h 6.4 km/h 64 % 0 mm
20:38 18.9 °C 12 °C 1018.8 hPa WNW 1.1 km/h 6.4 km/h 64 % 0 mm
20:43 18.9 °C 12.2 °C 1018.8 hPa WNW 5.3 km/h 8 km/h 65 % 0 mm
20:48 18.8 °C 12.1 °C 1018.8 hPa NW 6.8 km/h 13 km/h 65 % 0 mm
20:53 18.8 °C 12.1 °C 1018.8 hPa WNW 2.6 km/h 12.9 km/h 65 % 0 mm
20:58 18.8 °C 12.1 °C 1018.8 hPa West 2.9 km/h 14.8 km/h 65 % 0 mm
21:03 18.7 °C 12 °C 1018.8 hPa WNW 8.4 km/h 16.7 km/h 65 % 0 mm
21:08 18.7 °C 12 °C 1018.8 hPa NW 4.2 km/h 11.1 km/h 65 % 0 mm
21:13 18.7 °C 12.2 °C 1018.8 hPa WNW 2.7 km/h 13 km/h 66 % 0 mm
21:18 18.7 °C 12.2 °C 1018.8 hPa West 10.8 km/h 14.8 km/h 66 % 0 mm
21:23 18.6 °C 12.3 °C 1018.8 hPa West 10.3 km/h 14.8 km/h 67 % 0 mm
21:28 18.6 °C 12.3 °C 1018.8 hPa West 5.6 km/h 13 km/h 67 % 0 mm
21:33 18.6 °C 12.6 °C 1018.8 hPa West 8 km/h 12.9 km/h 68 % 0 mm
21:38 18.5 °C 12.5 °C 1018.8 hPa WNW 7.7 km/h 13 km/h 68 % 0 mm
21:43 18.4 °C 12.7 °C 1018.8 hPa WNW 4.3 km/h 11.1 km/h 69 % 0 mm
21:48 18.4 °C 12.6 °C 1019.2 hPa NW 1.3 km/h 7.4 km/h 69 % 0 mm
21:54 18.3 °C 12.8 °C 1019.2 hPa NE 0.8 km/h 9.3 km/h 70 % 0 mm
21:59 18.3 °C 12.5 °C 1019.2 hPa WNW 5.1 km/h 13 km/h 69 % 0 mm
22:04 18.2 °C 12.4 °C 1019.5 hPa WNW 5.5 km/h 14.8 km/h 69 % 0 mm
22:09 18.1 °C 12.3 °C 1019.2 hPa WNW 3.1 km/h 9.3 km/h 69 % 0 mm
22:14 18.1 °C 12.5 °C 1019.5 hPa WNW 3.9 km/h 9.3 km/h 70 % 0 mm
22:19 18 °C 12.4 °C 1019.5 hPa West 4 km/h 11.3 km/h 70 % 0 mm
22:24 17.9 °C 12.3 °C 1019.5 hPa West 7.4 km/h 11.1 km/h 70 % 0 mm
22:29 17.8 °C 12.5 °C 1019.5 hPa North 3.1 km/h 9.3 km/h 71 % 0 mm
22:34 17.8 °C 12.7 °C 1019.5 hPa NNW 3.2 km/h 9.3 km/h 72 % 0 mm
22:39 17.7 °C 12.6 °C 1019.5 hPa NNW 1 km/h 4.8 km/h 72 % 0 mm
22:44 17.6 °C 12.7 °C 1019.5 hPa NNE 2.3 km/h 13 km/h 73 % 0 mm
22:49 17.5 °C 12.6 °C 1019.5 hPa North 0.5 km/h 1.9 km/h 73 % 0 mm
22:54 17.4 °C 12.6 °C 1019.5 hPa NW 1.6 km/h 3.7 km/h 73 % 0 mm
22:59 17.4 °C 12.7 °C 1019.5 hPa Calm   1.9 km/h 74 % 0 mm
23:04 17.3 °C 12.6 °C 1019.5 hPa WNW 3.7 km/h 5.6 km/h 74 % 0 mm
23:10 17.2 °C 12.7 °C 1019.5 hPa NW 3.4 km/h 5.6 km/h 75 % 0 mm
23:15 17.1 °C 12.7 °C 1019.5 hPa NW 1.3 km/h 5.6 km/h 75 % 0 mm
23:20 17 °C 12.7 °C 1019.5 hPa NW 1 km/h 3.2 km/h 76 % 0 mm
23:21 17 °C 12.7 °C 1019.5 hPa NW 1.4 km/h 3.2 km/h 76 % 0 mm
23:23 16.9 °C 12.7 °C 1019.5 hPa Calm   3.7 km/h 76 % 0 mm
23:26 16.9 °C 12.6 °C 1019.5 hPa North 1.1 km/h 5.6 km/h 76 % 0 mm
23:31 16.8 °C 12.5 °C 1019.5 hPa NW 1 km/h 1.6 km/h 76 % 0 mm
23:36 16.7 °C 12.4 °C 1019.5 hPa NNW 2.9 km/h 5.6 km/h 76 % 0 mm
23:41 16.6 °C 12.1 °C 1019.5 hPa North 1.9 km/h 5.6 km/h 75 % 0 mm
23:46 16.4 °C 12 °C 1019.5 hPa NNE 4.8 km/h 6.4 km/h 75 % 0 mm
23:52 16.4 °C 11.9 °C 1019.9 hPa Calm   5.6 km/h 75 % 0 mm
23:56 16.3 °C 12.1 °C 1019.5 hPa North 2.4 km/h 4.8 km/h 76 % 0 mm
Crab Meadow Weather
Compliments of Weather Underground - 3 mb

Script developed by  Jim McMurry - jmcmurry@mwt.net Adapted for the template by  Wim van der Kuil - Leuven-Template.eu

Wind Chill: Everyone has noticed that in winter it seems colder when the wind is blowing. Mothers recognize this and tell their children to wear more clothes. The question the children ask is how much more clothes. Mothers answer very precisely because Mothers know everything. For the rest of us, wind chill calculations are the basis for determining the effect of wind on body heat loss. The wind chill equivalent temperature equation is: Wind chill temperature = 35.74 + 0.6215T - 35.75V (**0.16) + 0.4275TV(**0.16) where T is the air temperature in Fahrenheit and V is the wind speed in MPH.